CW1203 Weather Reports


Display with metric or nautical units.
time (UTC)temp
F
wind
direction
speed
MPH
gust
MPH
rain 1hr
in
rain 24hr
in
rain mn
in
humidity
%
barometer
mb
20210804093226 62 233 0.0 2.0 0.00 0.68 0.00 95 1019.2
20210804091642 62 284 0.0 3.0 0.00 0.68 0.00 95 1019.1
20210804090220 62 86 0.0 3.0 0.00 0.68 0.00 96 1019.1
20210804084618 62 335 0.0 5.0 0.00 0.69 0.00 95 1019.2
20210804083252 62 298 0.0 3.0 0.00 0.69 0.00 96 1019.2
20210804081617 62 122 0.0 1.0 0.00 0.69 0.00 96 1019.3
20210804080116 62 113 0.0 2.0 0.00 0.69 0.00 95 1019.4
20210804074653 63 118 0.0 1.0 0.00 0.71 0.00 95 1019.4
20210804073121 63 77 0.0 1.0 0.00 0.71 0.00 95 1019.4
20210804071644 63 121 0.0 4.0 0.00 0.71 0.00 95 1019.3
20210804070114 63 200 0.0 3.0 0.00 0.71 0.00 95 1019.3
20210804064719 63 146 0.0 2.0 0.00 0.71 0.00 94 1019.5
20210804063130 64 198 0.0 1.0 0.00 0.71 0.00 94 1019.6
20210804061615 64 120 0.0 2.0 0.00 0.71 0.00 95 1019.5
20210804060135 64 82 0.0 1.0 0.00 0.71 0.00 96 1019.6
20210804054645 64 73 0.0 1.0 0.00 0.71 0.00 96 1019.7
20210804053129 64 216 0.0 1.0 0.00 0.71 0.00 97 1019.5
20210804051903 64 216 0.0 0.0 0.00 0.71 0.00 97 1019.6
20210804050133 64 216 0.0 0.0 0.00 0.71 0.00 97 1019.7
20210804044613 65 216 0.0 0.0 0.00 0.71 0.00 97 1019.6
20210804043128 65 216 0.0 0.0 0.00 0.71 0.00 97 1019.7
20210804041554 65 216 0.0 0.0 0.00 0.71 0.00 97 1019.5
20210804040038 64 216 0.0 0.0 0.00 0.71 0.00 97 1019.5
20210804034538 65 216 0.0 0.0 0.00 0.71 0.71 97 1019.5
20210804033035 65 216 0.0 0.0 0.00 0.71 0.71 97 1019.6
20210804031618 65 216 0.0 0.0 0.00 0.71 0.71 97 1019.7
20210804030053 65 216 0.0 0.0 0.00 0.71 0.71 97 1019.7
20210804024548 65 216 0.0 0.0 0.00 0.71 0.71 97 1019.7
20210804023047 65 216 0.0 0.0 0.00 0.71 0.71 97 1019.6
20210804021620 65 216 0.0 0.0 0.00 0.71 0.71 97 1019.6
20210804020140 65 216 0.0 0.0 0.00 0.71 0.71 96 1019.3
20210804014549 65 216 0.0 0.0 0.00 0.71 0.71 96 1019.2
20210804013119 65 216 0.0 0.0 0.00 0.71 0.71 96 1019.2
20210804011550 65 116 0.0 0.0 0.00 0.71 0.71 96 1019.2
20210804010101 65 116 0.0 1.0 0.00 0.71 0.71 96 1019.1
20210804004526 66 116 0.0 0.0 0.00 0.71 0.71 96 1019.0
20210804003050 66 116 0.0 0.0 0.00 0.71 0.71 95 1018.9
20210804001533 66 116 0.0 0.0 0.00 0.71 0.71 94 1018.8
20210804000037 66 116 0.0 0.0 0.00 0.71 0.71 93 1018.7
20210803234609 67 116 0.0 1.0 0.00 0.71 0.71 93 1018.4
20210803233147 67 122 0.0 1.0 0.00 0.71 0.71 92 1018.5
20210803231615 68 122 0.0 1.0 0.00 0.71 0.71 91 1018.4
20210803230057 68 124 0.0 1.0 0.00 0.71 0.71 90 1018.3
20210803224614 69 92 0.0 1.0 0.00 0.71 0.71 89 1018.3
20210803223024 69 117 0.0 3.0 0.00 0.71 0.71 88 1018.3
20210803221536 69 86 0.0 5.0 0.00 0.71 0.71 87 1018.3
20210803220133 69 111 0.0 4.0 0.03 0.71 0.71 89 1018.4
20210803214524 69 96 1.0 4.0 0.04 0.71 0.71 91 1018.4
20210803213059 67 120 0.0 3.0 0.04 0.71 0.71 93 1018.5
20210803211549 67 148 0.0 1.0 0.04 0.71 0.71 93 1018.5
20210803210026 67 34 0.0 4.0 0.01 0.68 0.68 91 1018.5
20210803204540 68 77 0.0 2.0 0.00 0.67 0.67 89 1018.4
20210803203026 69 345 0.0 2.0 0.00 0.67 0.67 90 1018.4
20210803201547 69 337 0.0 5.0 0.00 0.67 0.67 88 1018.6
20210803200018 69 329 0.0 4.0 0.00 0.67 0.67 86 1018.6
20210803194536 70 97 0.0 5.0 0.00 0.67 0.67 85 1018.7
20210803193018 71 337 0.0 4.0 0.00 0.67 0.67 82 1018.7
20210803191521 70 30 1.0 6.0 0.00 0.67 0.67 82 1018.6
20210803190024 71 359 1.0 7.0 0.00 0.67 0.67 84 1018.7
20210803184514 70 203 0.0 7.0 0.00 0.67 0.67 84 1018.7
20210803183051 70 26 0.0 7.0 0.00 0.67 0.67 87 1018.7
20210803181511 69 18 0.0 5.0 0.00 0.67 0.67 88 1018.8
20210803180006 68 60 0.0 5.0 0.00 0.67 0.67 89 1019.0
20210803173320 67 92 0.0 4.0 0.00 0.67 0.67 92 1019.4
20210803171816 67 122 0.0 4.0 0.00 0.67 0.67 91 1019.4
20210803170229 67 220 0.0 3.0 0.00 0.67 0.67 93 1019.6
20210803164654 64 112 1.0 6.0 0.00 0.67 0.67 95 1019.8
20210803163136 64 9 0.0 2.0 0.00 0.67 0.67 95 1019.9
20210803161658 65 347 0.0 3.0 0.00 0.67 0.67 96 1019.9
20210803160135 64 85 0.0 3.0 0.00 0.67 0.67 95 1019.8
20210803154610 65 289 0.0 4.0 0.00 0.67 0.67 94 1019.7
20210803153235 65 195 0.0 4.0 0.00 0.67 0.67 95 1019.5
20210803151710 65 79 0.0 4.0 0.00 0.67 0.67 96 1019.4
20210803150125 64 280 0.0 5.0 0.00 0.67 0.67 96 1019.5
20210803144815 64 8 0.0 4.0 0.00 0.67 0.67 96 1019.6
20210803143112 64 16 0.0 2.0 0.00 0.67 0.67 96 1019.6
20210803141624 64 312 0.0 2.0 0.01 0.67 0.67 96 1019.5
20210803140228 65 104 0.0 1.0 0.02 0.67 0.67 97 1019.6
20210803134555 64 88 0.0 2.0 0.07 0.67 0.67 97 1019.5
20210803133127 64 335 0.0 3.0 0.12 0.67 0.67 97 1019.5
20210803131600 64 91 0.0 3.0 0.15 0.66 0.66 97 1019.5
20210803130205 64 99 0.0 2.0 0.22 0.65 0.65 97 1019.3
20210803124626 63 89 0.0 1.0 0.27 0.60 0.60 97 1019.1
20210803123109 63 97 0.0 1.0 0.28 0.55 0.55 97 1019.1
20210803121705 63 231 0.0 4.0 0.28 0.51 0.51 97 1018.9
20210803120123 64 134 0.0 0.0 0.24 0.42 0.42 97 1018.7
20210803114559 64 77 0.0 2.0 0.16 0.33 0.33 97 1019.0
20210803113100 64 124 0.0 0.0 0.10 0.26 0.26 97 1018.8
20210803111551 64 95 0.0 5.0 0.06 0.22 0.22 97 1018.7
20210803110109 64 94 0.0 4.0 0.03 0.18 0.18 97 1018.7
20210803104546 64 7 0.0 2.0 0.02 0.17 0.17 97 1018.7
20210803103057 64 104 0.0 2.0 0.02 0.16 0.16 96 1018.7
20210803101631 64 113 0.0 1.0 0.06 0.16 0.16 96 1018.6
20210803100104 64 115 0.0 0.0 0.12 0.15 0.15 96 1018.4
20210803094600 64 58 0.0 3.0 0.12 0.15 0.15 96 1018.3